This is the latest recevied weather packets stored in our database for station/object IW1CBG-23. If no packets are shown the sender has not sent any weather packets the latest 10 day(s).
| Time | Temp. | Humidity | Pressure | Rain* | Wind** | Luminosity | Snow |
|---|---|---|---|---|---|---|---|
| 1777477354 | 16.67° C | 63% | 1011.4 hPa | - | - | - | - |
| 1777474885 | 17.78° C | 59% | 1011.6 hPa | - | - | - | - |
| 1777473649 | 18.33° C | 59% | 1011.9 hPa | - | - | - | - |
| 1777472412 | 17.78° C | 62% | 1012.1 hPa | - | - | - | - |
| 1777471175 | 18.33° C | 65% | 1012.3 hPa | - | - | - | - |
| 1777469938 | 17.78° C | 64% | 1012.5 hPa | - | - | - | - |
| 1777467462 | 16.67° C | 76% | 1012.5 hPa | - | - | - | - |
| 1777466225 | 16.11° C | 80% | 1012.6 hPa | - | - | - | - |
| 1777464982 | 15.56° C | 93% | 1012.6 hPa | - | - | - | - |
| 1777462501 | 13.89° C | 99% | 1012.5 hPa | - | - | - | - |
| 1777461262 | 13.89° C | 99% | 1012.7 hPa | - | - | - | - |
| 1777460024 | 15.56° C | 99% | 1012.8 hPa | - | - | - | - |
| 1777458786 | 14.44° C | 99% | 1012.7 hPa | - | - | - | - |
| 1777457546 | 13.33° C | 99% | 1012.9 hPa | - | - | - | - |
| 1777456313 | 15.56° C | 99% | 1012.6 hPa | - | - | - | - |
| 1777455074 | 14.44° C | 99% | 1012.6 hPa | - | - | - | - |
| 1777453834 | 13.89° C | 99% | 1012.6 hPa | - | - | - | - |
| 1777452595 | 12.78° C | 99% | 1012.5 hPa | - | - | - | - |
| 1777451363 | 12.78° C | 99% | 1012.5 hPa | - | - | - | - |
| 1777450122 | 13.33° C | 99% | 1012.4 hPa | - | - | - | - |
| 1777448889 | 12.78° C | 99% | 1012.1 hPa | - | - | - | - |
| 1777447649 | 13.33° C | 99% | 1012.1 hPa | - | - | - | - |
| 1777446407 | 12.22° C | 99% | 1012 hPa | - | - | - | - |
| 1777445168 | 11.11° C | 99% | 1012.1 hPa | - | - | - | - |
| 1777441453 | 9.44° C | 99% | 1011.7 hPa | - | - | - | - |
* Rain since midnight (hover to see other rain measurements)
** Current wind speed in m/s (hover to see current wind gust speed)